Total_Precipitation_Accumulation
0.93 1.03 1.06 0.85 0.61 0.49 0.47 0.45 0.44 0.47 0.52 0.60 0.55 0.52 0.58 0.62 0.59 0.68 0.78 0.90 0.99 1.04 1.05 1.10 1.17 1.23 1.32 1.37 1.49 1.56 1.59 1.53 1.28 1.13 0.98 0.88 0.92 0.96 0.97 0.93 0.99 1.01 0.92
0.80 0.79 0.65 0.47 0.37 0.34 0.30 0.25 0.22 0.22 0.22 0.29 0.32 0.32 0.40 0.51 0.52 0.58 0.63 0.65 0.71 0.76 0.80 0.87 0.92 0.98 1.09 1.17 1.24 1.33 1.46 1.49 1.38 1.22 1.08 0.96 0.89 0.93 1.09 1.14 1.12 1.05 1.03
0.44 0.42 0.39 0.32 0.30 0.26 0.21 0.19 0.17 0.16 0.16 0.20 0.23 0.26 0.29 0.39 0.50 0.56 0.58 0.54 0.54 0.52 0.52 0.57 0.67 0.74 0.88 0.97 1.02 1.11 1.25 1.29 1.36 1.26 1.19 1.11 0.96 0.90 1.04 1.06 1.15 1.31 1.22
0.25 0.23 0.22 0.23 0.23 0.23 0.23 0.23 0.18 0.14 0.16 0.15 0.14 0.16 0.24 0.34 0.43 0.51 0.55 0.52 0.49 0.49 0.49 0.50 0.53 0.55 0.62 0.74 0.87 1.05 1.21 1.33 1.37 1.30 1.26 1.22 1.12 1.03 1.10 1.16 1.26 1.36 1.41
0.15 0.16 0.18 0.18 0.18 0.18 0.20 0.20 0.17 0.14 0.12 0.08 0.06 0.08 0.16 0.22 0.26 0.40 0.46 0.45 0.48 0.45 0.47 0.51 0.52 0.49 0.49 0.54 0.55 0.73 0.95 1.18 1.29 1.35 1.36 1.36 1.29 1.21 1.12 1.18 1.30 1.45 1.57
0.03 0.05 0.08 0.11 0.13 0.15 0.15 0.15 0.13 0.11 0.09 0.07 0.05 0.05 0.07 0.08 0.14 0.21 0.30 0.40 0.47 0.50 0.51 0.55 0.52 0.47 0.52 0.51 0.49 0.52 0.62 0.78 0.96 1.09 1.18 1.23 1.26 1.34 1.40 1.40 1.44 1.52 1.60
0.01 0.01 0.02 0.03 0.04 0.05 0.05 0.06 0.05 0.04 0.04 0.04 0.04 0.04 0.04 0.04 0.05 0.08 0.18 0.34 0.48 0.49 0.48 0.62 0.68 0.61 0.60 0.64 0.66 0.60 0.54 0.53 0.68 0.86 0.99 1.04 1.11 1.21 1.42 1.46 1.48 1.51 1.44
0.00 0.00 0.01 0.01 0.02 0.02 0.02 0.02 0.02 0.02 0.02 0.03 0.05 0.07 0.05 0.02 0.02 0.03 0.09 0.24 0.39 0.43 0.44 0.55 0.81 0.85 0.74 0.70 0.75 0.85 0.77 0.61 0.60 0.65 0.80 0.91 0.96 1.12 1.43 1.65 1.62 1.42 1.36
0.00 0.00 0.00 0.01 0.01 0.01 0.01 0.01 0.01 0.01 0.03 0.03 0.04 0.06 0.05 0.04 0.04 0.04 0.08 0.19 0.29 0.33 0.38 0.50 0.66 0.81 0.75 0.71 0.71 0.78 0.82 0.72 0.66 0.67 0.64 0.71 0.83 1.00 1.26 1.52 1.64 1.59 1.43
0.00 0.00 0.00 0.00 0.01 0.02 0.01 0.01 0.01 0.02 0.03 0.03 0.03 0.03 0.03 0.02 0.04 0.05 0.07 0.13 0.17 0.17 0.24 0.41 0.56 0.55 0.52 0.59 0.70 0.81 0.90 0.74 0.64 0.73 0.72 0.74 0.76 0.95 1.27 1.46 1.58 1.58 1.46
0.00 0.00 0.01 0.01 0.01 0.02 0.03 0.02 0.02 0.02 0.03 0.03 0.04 0.04 0.04 0.03 0.04 0.05 0.08 0.10 0.13 0.13 0.19 0.32 0.40 0.37 0.37 0.45 0.57 0.70 0.83 0.69 0.70 0.84 0.89 0.87 0.94 0.99 1.11 1.24 1.44 1.56 1.46
0.00 0.01 0.01 0.01 0.01 0.02 0.03 0.02 0.02 0.02 0.03 0.05 0.07 0.08 0.08 0.08 0.06 0.06 0.08 0.10 0.12 0.14 0.20 0.26 0.29 0.26 0.28 0.33 0.38 0.49 0.60 0.68 0.76 0.89 0.96 0.93 0.89 0.96 1.02 1.05 1.15 1.27 1.27
0.00 0.01 0.01 0.01 0.01 0.01 0.02 0.02 0.02 0.02 0.03 0.05 0.08 0.10 0.11 0.12 0.09 0.06 0.07 0.08 0.12 0.15 0.18 0.22 0.23 0.25 0.29 0.30 0.31 0.39 0.54 0.73 0.90 0.90 0.84 0.81 0.83 0.89 0.90 1.01 1.09 1.13 1.16
0.00 0.00 0.00 0.01 0.01 0.02 0.01 0.01 0.02 0.02 0.03 0.04 0.06 0.08 0.09 0.12 0.08 0.07 0.10 0.12 0.13 0.16 0.18 0.19 0.19 0.24 0.28 0.28 0.34 0.46 0.62 0.81 0.90 0.81 0.76 0.66 0.67 0.82 0.88 0.89 0.94 0.96 1.02
0.00 0.00 0.00 0.00 0.01 0.03 0.02 0.01 0.01 0.01 0.02 0.03 0.05 0.07 0.06 0.06 0.07 0.08 0.10 0.11 0.12 0.12 0.16 0.23 0.27 0.34 0.39 0.46 0.56 0.65 0.67 0.71 0.77 0.69 0.73 0.67 0.63 0.70 0.74 0.75 0.77 0.74 0.75
0.00 0.00 0.00 0.00 0.01 0.02 0.03 0.02 0.02 0.02 0.02 0.02 0.02 0.04 0.06 0.04 0.05 0.07 0.08 0.10 0.09 0.11 0.20 0.28 0.36 0.44 0.50 0.58 0.64 0.65 0.65 0.67 0.70 0.66 0.65 0.64 0.59 0.59 0.61 0.62 0.66 0.69 0.72
0.00 0.00 0.01 0.01 0.01 0.02 0.02 0.04 0.05 0.04 0.02 0.02 0.02 0.03 0.04 0.04 0.05 0.06 0.08 0.09 0.09 0.12 0.18 0.29 0.48 0.54 0.52 0.58 0.63 0.61 0.53 0.47 0.48 0.50 0.49 0.48 0.46 0.47 0.51 0.53 0.54 0.61 0.63
0.00 0.00 0.01 0.01 0.01 0.02 0.02 0.03 0.04 0.05 0.06 0.06 0.04 0.04 0.04 0.05 0.06 0.06 0.08 0.10 0.10 0.11 0.14 0.21 0.34 0.38 0.41 0.47 0.48 0.45 0.39 0.33 0.33 0.33 0.34 0.35 0.36 0.39 0.40 0.43 0.44 0.44 0.50
0.00 0.01 0.01 0.01 0.02 0.02 0.03 0.03 0.03 0.03 0.04 0.05 0.06 0.05 0.05 0.07 0.07 0.07 0.08 0.09 0.10 0.12 0.14 0.19 0.24 0.27 0.28 0.28 0.28 0.29 0.29 0.30 0.30 0.30 0.31 0.33 0.34 0.35 0.34 0.34 0.37 0.40 0.41
0.01 0.02 0.02 0.02 0.02 0.02 0.03 0.04 0.04 0.04 0.05 0.05 0.06 0.07 0.09 0.10 0.10 0.10 0.09 0.10 0.11 0.12 0.13 0.15 0.17 0.17 0.18 0.19 0.20 0.24 0.26 0.29 0.30 0.31 0.30 0.32 0.34 0.35 0.33 0.32 0.32 0.33 0.35
0.01 0.02 0.03 0.03 0.03 0.03 0.04 0.05 0.05 0.06 0.07 0.07 0.07 0.09 0.10 0.11 0.13 0.14 0.14 0.14 0.14 0.14 0.15 0.14 0.15 0.16 0.17 0.19 0.23 0.24 0.25 0.29 0.31 0.31 0.33 0.34 0.35 0.36 0.36 0.35 0.35 0.34 0.35
0.02 0.02 0.03 0.03 0.04 0.04 0.05 0.05 0.06 0.06 0.07 0.08 0.09 0.11 0.12 0.13 0.14 0.16 0.16 0.15 0.15 0.16 0.17 0.17 0.17 0.17 0.20 0.22 0.25 0.27 0.28 0.31 0.33 0.34 0.35 0.37 0.38 0.39 0.38 0.38 0.39 0.40 0.39
0.02 0.02 0.03 0.04 0.05 0.05 0.06 0.06 0.07 0.07 0.09 0.09 0.11 0.12 0.14 0.15 0.16 0.16 0.16 0.15 0.16 0.17 0.18 0.19 0.19 0.19 0.20 0.23 0.26 0.29 0.31 0.32 0.37 0.41 0.44 0.42 0.41 0.41 0.40 0.39 0.39 0.42 0.42
0.02 0.02 0.03 0.04 0.05 0.06 0.06 0.06 0.07 0.08 0.09 0.10 0.11 0.13 0.14 0.16 0.17 0.18 0.17 0.16 0.17 0.17 0.18 0.20 0.21 0.20 0.20 0.23 0.26 0.29 0.32 0.34 0.38 0.44 0.50 0.51 0.47 0.44 0.43 0.41 0.39 0.40 0.44
0.02 0.02 0.03 0.04 0.05 0.07 0.07 0.08 0.09 0.09 0.10 0.12 0.13 0.14 0.14 0.14 0.15 0.17 0.18 0.18 0.17 0.18 0.19 0.21 0.23 0.24 0.23 0.24 0.27 0.31 0.36 0.38 0.38 0.42 0.48 0.53 0.52 0.50 0.48 0.46 0.43 0.42 0.43
0.01 0.02 0.04 0.05 0.06 0.07 0.08 0.09 0.10 0.11 0.13 0.13 0.14 0.15 0.16 0.16 0.16 0.17 0.18 0.18 0.17 0.17 0.17 0.20 0.22 0.23 0.24 0.25 0.28 0.33 0.38 0.37 0.37 0.40 0.45 0.50 0.54 0.54 0.53 0.53 0.51 0.49 0.48